Tracking 30918 objects as of 3-Jul-2025
HD Live streaming from Space Station
objects crossing your sky now

STARLINK-6153

Track STARLINK-6153 now!
10-day predictions
STARLINK-6153 is classified as:


NORAD ID: 56384
Int'l Code: 2023-061L
Perigee: 565.6 km
Apogee: 566.9 km
Inclination: 43.0 °
Period: 95.8 minutes
Semi major axis: 6937 km
RCS: Unknown
Launch date: May 4, 2023
Source: United States (US)
Launch site: AIR FORCE EASTERN TEST RANGE (AFETR)
Your satellite tracking list
ONEWEB-0053
Track 1 satellite(s)




NASA's NSSDC Master Catalog

Two Line Element Set (TLE):
1 56384U 23061L   25183.50985427  .00000224  00000-0  31631-4 0  9993
2 56384  43.0036 116.6515 0000946 295.0244  65.0500 15.02535112119129
Source of the keplerian elements: AFSPC